Weather History for Blythe, CA

Change the Weather History Date:

Friday, October 4, 2013

  Actual Average Record
Temperature  
Mean Temperature 75 °F -  
Max Temperature 84 °F 94 °F 104 °F (1980)
Min Temperature 66 °F 65 °F 53 °F (2002)
Cooling Degree Days 10    
Growing Degree Days 25 (Base 50)    
Moisture  
Dew Point 15 °F    
Average Humidity 11    
Maximum Humidity 14    
Minimum Humidity 6    
Precipitation  
Precipitation 0.00 in - - ()
Sea Level Pressure  
Sea Level Pressure 29.96 in    
Wind  
Wind Speed 20 mph (North)    
Max Wind Speed 29 mph    
Max Gust Speed 40 mph    
Visibility 10 miles    
Events      
Averages and records for this station are not official NWS values.
T = Trace of Precipitation, MM = Missing Value Source: NWS Daily Summary

Daily Weather History Graph

Daily Weather History Graph

Search for Another Location

Airport:

Trip Planner

Search our weather history database for the weather conditions in past years. The results will help you decide how hot, cold, wet, or windy it might be!

Date:

Astronomy

Oct. 04, 2013 Rise Set
Actual Time 6:35 AM PDT 6:18 PM PDT
Civil Twilight 6:10 AM PDT 6:43 PM PDT
Nautical Twilight 5:41 AM PDT 7:12 PM PDT
Astronomical Twilight 5:12 AM PDT 7:41 PM PDT
Moon 6:14 AM PDT (10/4) 6:05 PM PDT (10/4)
Length of Visible Light 12h 32m
Length of Day
11h 43m
Waning Crescent, 0% of the Moon is Illuminated
Oct 4
Waning Crescent
Oct 4
New
Oct 11
First Quarter
Oct 18
Full
Oct 26
Last Quarter

Hourly Weather History & Observations

Time (PDT) Temp. Dew Point Humidity Pressure Visibility Wind Dir Wind Speed Gust Speed Precip Events Conditions
12:52 AM 75.9 °F 10.0 °F 8% 29.80 in 10.0 mi NNW 19.6 mph - N/A   Clear
1:52 AM 75.0 °F 3.9 °F 6% 29.82 in 10.0 mi North 23.0 mph 31.1 mph N/A   Clear
2:52 AM 73.9 °F 7.0 °F 8% 29.83 in 10.0 mi North 26.5 mph 34.5 mph N/A   Clear
3:52 AM 71.1 °F 7.0 °F 8% 29.86 in 10.0 mi North 13.8 mph - N/A   Clear
4:52 AM 69.1 °F 10.9 °F 11% 29.88 in 10.0 mi North 16.1 mph - N/A   Clear
5:52 AM 68.0 °F 12.9 °F 12% 29.91 in 10.0 mi NNW 19.6 mph - N/A   Clear
6:52 AM 66.9 °F 15.1 °F 14% 29.94 in 10.0 mi NNW 18.4 mph - N/A   Clear
7:52 AM 70.0 °F 16.0 °F 13% 29.97 in 10.0 mi NNW 18.4 mph 25.3 mph N/A   Clear
8:52 AM 73.0 °F 16.0 °F 11% 30.00 in 10.0 mi North 20.7 mph - N/A   Clear
9:52 AM 75.9 °F 17.1 °F 11% 30.02 in 10.0 mi NNW 20.7 mph 26.5 mph N/A   Clear
10:52 AM 78.1 °F 16.0 °F 10% 30.02 in 10.0 mi North 16.1 mph 27.6 mph N/A   Clear
11:52 AM 80.1 °F 17.1 °F 9% 30.01 in 10.0 mi North 18.4 mph 28.8 mph N/A   Clear
12:52 PM 82.0 °F 16.0 °F 8% 30.00 in 10.0 mi North 21.9 mph 29.9 mph N/A   Clear
1:52 PM 82.9 °F 16.0 °F 8% 29.98 in 10.0 mi North 18.4 mph 27.6 mph N/A   Clear
2:52 PM 84.0 °F 16.0 °F 8% 29.96 in 10.0 mi NNW 23.0 mph 32.2 mph N/A   Clear
3:52 PM 82.9 °F 16.0 °F 8% 29.96 in 10.0 mi North 19.6 mph 28.8 mph N/A   Clear
4:52 PM 82.0 °F 17.1 °F 9% 29.96 in 10.0 mi North 21.9 mph 33.4 mph N/A   Clear
5:52 PM 79.0 °F 17.1 °F 10% 29.97 in 10.0 mi North 23.0 mph 33.4 mph N/A   Clear
6:52 PM 75.9 °F 19.9 °F 12% 29.98 in 10.0 mi North 24.2 mph 29.9 mph N/A   Clear
7:52 PM 73.9 °F 19.9 °F 13% 30.01 in 10.0 mi NNW 17.3 mph - N/A   Clear
8:52 PM 73.9 °F 21.0 °F 14% 30.03 in 10.0 mi NNW 20.7 mph 27.6 mph N/A   Clear
9:52 PM 73.0 °F 21.0 °F 14% 30.05 in 10.0 mi NNW 20.7 mph 28.8 mph N/A   Clear
10:52 PM 73.0 °F 21.0 °F 14% 30.06 in 10.0 mi North 24.2 mph 35.7 mph N/A   Clear
11:52 PM 72.0 °F 19.9 °F 14% 30.05 in 10.0 mi North 28.8 mph 40.3 mph N/A   Clear